This is the latest recevied weather packets stored in our database for station/object F5LKO-13. If no packets are shown the sender has not sent any weather packets the latest 10 day(s).
| Time | Temp. | Humidity | Pressure | Rain* | Wind** | Luminosity | Snow |
|---|---|---|---|---|---|---|---|
| 1777975557 | 11.67° C | 99% | 1015.9 hPa | 0.51 mm | - | 0 W/m² | - |
| 1777975251 | 11.67° C | 99% | 1015.9 hPa | 0 mm | - | 1 W/m² | - |
| 1777974944 | 11.67° C | 99% | 1015.9 hPa | 6.35 mm | - | 1 W/m² | - |
| 1777974638 | 11.67° C | 99% | 1015.9 hPa | 5.59 mm | - | 0 W/m² | - |
| 1777974332 | 11.67° C | 99% | 1015.8 hPa | 5.59 mm | - | 0 W/m² | - |
| 1777974035 | 12.22° C | 99% | 1015.7 hPa | 5.08 mm | - | 0 W/m² | - |
| 1777973720 | 12.22° C | 99% | 1015.7 hPa | 5.08 mm | - | 0 W/m² | - |
| 1777973413 | 12.78° C | 99% | 1015.6 hPa | 3.3 mm | - | 0 W/m² | - |
| 1777973107 | 12.78° C | 99% | 1015.6 hPa | 3.3 mm | - | 0 W/m² | - |
| 1777972801 | 12.78° C | 99% | 1015.5 hPa | 2.79 mm | - | 0 W/m² | - |
| 1777972496 | 12.78° C | 99% | 1015.5 hPa | 2.29 mm | - | 0 W/m² | - |
| 1777972198 | 12.78° C | 99% | 1015.5 hPa | 1.52 mm | - | 0 W/m² | - |
| 1777971883 | 13.33° C | 99% | 1015.5 hPa | 1.02 mm | - | 0 W/m² | - |
| 1777971577 | 14.44° C | 99% | 1015.4 hPa | 0 mm | - | 0 W/m² | - |
| 1777971270 | 14.44° C | 99% | 1015.2 hPa | 0 mm | - | 0 W/m² | - |
| 1777970965 | 14.44° C | 99% | 1015.1 hPa | 0 mm | - | 0 W/m² | - |
| 1777970659 | 15° C | 99% | 1015.1 hPa | 0 mm | - | 0 W/m² | - |
| 1777970361 | 15° C | 99% | 1015.1 hPa | 0 mm | - | 0 W/m² | - |
| 1777970046 | 15.56° C | 99% | 1015.1 hPa | 0 mm | - | 0 W/m² | - |
| 1777969740 | 15° C | 99% | 1015 hPa | 0 mm | - | 1 W/m² | - |
| 1777969434 | 14.44° C | 99% | 1015 hPa | 0 mm | - | 2 W/m² | - |
| 1777969129 | 14.44° C | 99% | 1015 hPa | 0 mm | - | 3 W/m² | - |
| 1777968823 | 14.44° C | 99% | 1015 hPa | 0 mm | - | 2 W/m² | - |
| 1777968526 | 14.44° C | 99% | 1015 hPa | 0 mm | - | 1 W/m² | - |
| 1777968211 | 14.44° C | 99% | 1015 hPa | 0 mm | - | 0 W/m² | - |
* Rain latest hour (hover to see other rain measurements)
** Current wind speed in m/s (hover to see current wind gust speed)